Weather past 2 weeks in Mamoutzou, Mayotte

Now
77 °F

Warm.


Feels Like: 79 °F
Forecast: 76 / 79 °F
Wind: 5 mph from Northeast

Location: Dzaoudzi / Pamanzi Mayotte

Current Time: Jul 30, 2014 at 8:31:39 PM

Latest Report: Jul 30, 2014 at 8:00 PM


Visibility: N/A

Pressure: 30.09 "Hg

Humidity: 74%

Dew point: 68 °F

Location of MamoutzouLocation

Historic Weather in Mamoutzou — Graph

°F

Mamoutzou temperature yesterday

Maximum temperature yesterday: 84 °F (at 1:00 PM)
Minimum temperature yesterday: 77 °F (at 12:00 AM)
Average temperature yesterday: 79 °F

Past Weeks' High & Low Weather Summary

 TemperatureHumidityPressure
High84 °F (Jul 19, 12:30 PM)94% (Jul 20, 1:00 AM)30.12 "Hg (Jul 20, 1:00 AM)
Low72 °F (Jul 20, 1:00 AM)58% (Jul 17, 1:00 PM)29.98 "Hg (Jul 18, 2:00 PM)
Average78 °F75%30.05 "Hg
* Reported Jul 15 7:00 PM — Jul 30 7:30 PM, Mamoutzou, Weather by CustomWeather, © 2014

Note: Actual official high and low records may vary slightly from our data, if they occured in-between our weather recording intervals... More about our weather records

Advertising

Mamoutzou weather history for previous 24 hours

 ConditionsComfort  
Time TempWeatherWind HumidityBarometerVisibility
7:30 PM
Jul 30
79 °FWarm.7 mph70%30.09 "HgN/A
7:00 PM79 °FWarm.8 mph70%30.09 "HgN/A
6:30 PM79 °FWarm.9 mph74%30.09 "HgN/A
6:00 PM79 °FPassing clouds.10 mph74%30.07 "HgN/A
5:30 PM79 °FPassing clouds.13 mph74%30.07 "HgN/A
5:00 PM79 °FScattered clouds.14 mph74%30.07 "HgN/A
4:30 PM81 °FScattered clouds.12 mph70%30.07 "HgN/A
4:00 PM81 °FScattered clouds.12 mph70%30.04 "HgN/A
3:30 PM81 °FScattered clouds.12 mph70%30.04 "HgN/A
3:00 PM82 °FScattered clouds.13 mph66%30.04 "HgN/A
2:30 PM81 °FScattered clouds.10 mph70%30.04 "HgN/A
2:00 PM82 °FPassing clouds.12 mph66%30.04 "HgN/A
1:30 PM82 °FPassing clouds.12 mph66%30.04 "HgN/A
1:00 PM82 °FPassing clouds.9 mph66%30.07 "HgN/A
12:30 PM82 °FPassing clouds.10 mph62%30.07 "HgN/A
12:00 PM81 °FPassing clouds.12 mph70%30.07 "HgN/A
11:30 AM82 °FScattered clouds.12 mph66%30.07 "HgN/A
11:00 AM81 °FScattered clouds.14 mph70%30.07 "HgN/A
10:30 AM81 °FScattered clouds.15 mph70%30.07 "HgN/A
10:00 AM79 °FScattered clouds.14 mph79%30.07 "HgN/A
9:30 AM81 °FPassing clouds.14 mph66%30.07 "HgN/A
9:00 AM81 °FPassing clouds.13 mph66%30.07 "HgN/A
8:30 AM81 °FPassing clouds.13 mph66%30.07 "HgN/A
8:00 AM81 °FPassing clouds.14 mph66%30.07 "HgN/A
7:30 AM79 °FPassing clouds.16 mph70%30.07 "HgN/A
7:00 AM79 °FPassing clouds.15 mph70%30.04 "HgN/A
6:30 AM79 °FScattered clouds.16 mph70%30.04 "HgN/A
6:00 AM79 °FPassing clouds.16 mph74%30.04 "HgN/A
5:30 AM77 °FPassing clouds.15 mph79%30.04 "HgN/A
5:00 AM77 °FPassing clouds.10 mph83%30.04 "HgN/A
4:30 AM77 °FPartly cloudy.12 mph83%30.04 "HgN/A
4:00 AM77 °FPassing clouds.9 mph79%30.04 "HgN/A
3:30 AM77 °FPassing clouds.12 mph79%30.04 "HgN/A
3:00 AM77 °FPartly cloudy.13 mph79%30.04 "HgN/A
2:30 AM77 °FPassing clouds.14 mph79%30.04 "HgN/A
2:00 AM77 °FPartly cloudy.14 mph79%30.04 "HgN/A
1:30 AM77 °FPassing clouds.10 mph79%30.07 "HgN/A
1:00 AM77 °FPassing clouds.9 mph79%30.07 "HgN/A
12:30 AM77 °FPassing clouds.9 mph79%30.07 "HgN/A
12:00 AM77 °FWarm.8 mph79%30.07 "HgN/A
11:30 PM
Jul 29
77 °FWarm.7 mph79%30.07 "HgN/A
11:00 PM77 °FWarm.6 mph79%30.07 "HgN/A
10:30 PM77 °FWarm.7 mph79%30.07 "HgN/A
10:00 PM77 °FMostly cloudy.7 mph79%30.07 "HgN/A
9:30 PM77 °FOvercast.7 mph79%30.07 "HgN/A
9:00 PM77 °FPartly cloudy.7 mph79%30.07 "HgN/A
8:30 PM77 °FWarm.8 mph79%30.07 "HgN/A
8:00 PM77 °FPassing clouds.9 mph79%30.07 "HgN/A
Weather by CustomWeather, © 2014

See weather overviewHow to use our weather pages